Year,Month,Day,Hour,Minute,Value (Times are PST for temperature in C)
2015,07,26,00,00,16.40
2015,07,26,00,01,16.40
2015,07,26,00,02,16.40
2015,07,26,00,03,16.40
2015,07,26,00,04,16.40
2015,07,26,00,05,16.40
2015,07,26,00,06,16.40
2015,07,26,00,07,16.30
2015,07,26,00,08,16.30
2015,07,26,00,09,16.30
2015,07,26,00,10,16.30
2015,07,26,00,11,16.30
2015,07,26,00,12,16.20
2015,07,26,00,13,16.20
2015,07,26,00,14,16.20
2015,07,26,00,15,16.20
2015,07,26,00,16,16.20
2015,07,26,00,17,16.20
2015,07,26,00,18,16.10
2015,07,26,00,19,16.10
2015,07,26,00,20,16.10
2015,07,26,00,21,16.10
2015,07,26,00,22,16.10
2015,07,26,00,23,16.10
2015,07,26,00,24,16.10
2015,07,26,00,25,16.10
2015,07,26,00,26,16.10
2015,07,26,00,27,16.00
2015,07,26,00,28,15.90
2015,07,26,00,29,15.90
2015,07,26,00,30,15.90
2015,07,26,00,31,15.90
2015,07,26,00,32,15.80
2015,07,26,00,33,15.80
2015,07,26,00,34,15.80
2015,07,26,00,35,15.80
2015,07,26,00,36,15.80
2015,07,26,00,37,15.80
2015,07,26,00,38,15.80
2015,07,26,00,39,15.80
2015,07,26,00,40,15.80
2015,07,26,00,41,15.80
2015,07,26,00,42,15.80
2015,07,26,00,43,15.80
2015,07,26,00,44,15.70
2015,07,26,00,45,15.70
2015,07,26,00,46,15.70
2015,07,26,00,47,15.60
2015,07,26,00,48,15.60
2015,07,26,00,49,15.60
2015,07,26,00,50,15.50
2015,07,26,00,51,15.50
2015,07,26,00,52,15.50
2015,07,26,00,53,15.40
2015,07,26,00,54,15.40
2015,07,26,00,55,15.40
2015,07,26,00,56,15.30
2015,07,26,00,57,15.30
2015,07,26,00,58,15.30
2015,07,26,00,59,15.30
2015,07,26,01,00,15.30
2015,07,26,01,01,15.20
2015,07,26,01,02,15.20
2015,07,26,01,03,15.20
2015,07,26,01,04,15.20
2015,07,26,01,05,15.20
2015,07,26,01,06,15.20
2015,07,26,01,07,15.20
2015,07,26,01,08,15.20
2015,07,26,01,09,15.20
2015,07,26,01,10,15.10
2015,07,26,01,11,15.10
2015,07,26,01,12,15.10
2015,07,26,01,13,15.10
2015,07,26,01,14,15.10
2015,07,26,01,15,15.10
2015,07,26,01,16,15.10
2015,07,26,01,17,15.10
2015,07,26,01,18,15.10
2015,07,26,01,19,15.10
2015,07,26,01,20,15.10
2015,07,26,01,21,15.00
2015,07,26,01,22,15.00
2015,07,26,01,23,15.00
2015,07,26,01,24,15.00
2015,07,26,01,25,15.00
2015,07,26,01,26,15.00
2015,07,26,01,27,15.00
2015,07,26,01,28,15.00
2015,07,26,01,29,14.90
2015,07,26,01,30,14.90
2015,07,26,01,31,14.90
2015,07,26,01,32,14.90
2015,07,26,01,33,14.90
2015,07,26,01,34,14.90
2015,07,26,01,35,14.90
2015,07,26,01,36,14.90
2015,07,26,01,37,14.90
2015,07,26,01,38,14.80
2015,07,26,01,39,14.80
2015,07,26,01,40,14.80
2015,07,26,01,41,14.80
2015,07,26,01,42,14.80
2015,07,26,01,43,14.80
2015,07,26,01,44,14.80
2015,07,26,01,45,14.80
2015,07,26,01,46,14.70
2015,07,26,01,47,14.70
2015,07,26,01,48,14.70
2015,07,26,01,49,14.70
2015,07,26,01,50,14.70
2015,07,26,01,51,14.70
2015,07,26,01,52,14.70
2015,07,26,01,53,14.70
2015,07,26,01,54,14.60
2015,07,26,01,55,14.60
2015,07,26,01,56,14.60
2015,07,26,01,57,14.60
2015,07,26,01,58,14.60
2015,07,26,01,59,14.60
2015,07,26,02,00,14.60
2015,07,26,02,01,14.60
2015,07,26,02,02,14.60
2015,07,26,02,03,14.50
2015,07,26,02,04,14.50
2015,07,26,02,05,14.50
2015,07,26,02,06,14.50
2015,07,26,02,07,14.50
2015,07,26,02,08,14.50
2015,07,26,02,09,14.50
2015,07,26,02,10,14.50
2015,07,26,02,11,14.50
2015,07,26,02,12,14.50
2015,07,26,02,13,14.50
2015,07,26,02,14,14.50
2015,07,26,02,15,14.50
2015,07,26,02,16,14.50
2015,07,26,02,17,14.50
2015,07,26,02,18,14.50
2015,07,26,02,19,14.50
2015,07,26,02,20,14.50
2015,07,26,02,21,14.50
2015,07,26,02,22,14.50
2015,07,26,02,23,14.50
2015,07,26,02,24,14.50
2015,07,26,02,25,14.50
2015,07,26,02,26,14.50
2015,07,26,02,27,14.50
2015,07,26,02,28,14.50
2015,07,26,02,29,14.60
2015,07,26,02,30,14.60
2015,07,26,02,31,14.60
2015,07,26,02,32,14.60
2015,07,26,02,33,14.60
2015,07,26,02,34,14.60
2015,07,26,02,35,14.60
2015,07,26,02,36,14.70
2015,07,26,02,37,14.70
2015,07,26,02,38,14.70
2015,07,26,02,39,14.70
2015,07,26,02,40,14.70
2015,07,26,02,41,14.80
2015,07,26,02,42,14.80
2015,07,26,02,43,14.80
2015,07,26,02,44,14.80
2015,07,26,02,45,14.80
2015,07,26,02,46,14.80
2015,07,26,02,47,14.80
2015,07,26,02,48,14.80
2015,07,26,02,49,14.80
2015,07,26,02,50,14.80
2015,07,26,02,51,14.80
2015,07,26,02,52,14.80
2015,07,26,02,53,14.80
2015,07,26,02,54,14.80
2015,07,26,02,55,14.80
2015,07,26,02,56,14.80
2015,07,26,02,57,14.80
2015,07,26,02,58,14.80
2015,07,26,02,59,14.80
2015,07,26,03,00,14.90
2015,07,26,03,01,14.90
2015,07,26,03,02,14.90
2015,07,26,03,03,15.00
2015,07,26,03,04,15.00
2015,07,26,03,05,15.00
2015,07,26,03,06,15.00
2015,07,26,03,07,15.00
2015,07,26,03,08,15.00
2015,07,26,03,09,15.00
2015,07,26,03,10,15.00
2015,07,26,03,11,15.10
2015,07,26,03,12,15.10
2015,07,26,03,13,15.10
2015,07,26,03,14,15.10
2015,07,26,03,15,15.10
2015,07,26,03,16,15.10
2015,07,26,03,17,15.10
2015,07,26,03,18,15.10
2015,07,26,03,19,15.10
2015,07,26,03,20,15.20
2015,07,26,03,21,15.20
2015,07,26,03,22,15.20
2015,07,26,03,23,15.20
2015,07,26,03,24,15.20
2015,07,26,03,25,15.20
2015,07,26,03,26,15.20
2015,07,26,03,27,15.20
2015,07,26,03,28,15.20
2015,07,26,03,29,15.20
2015,07,26,03,30,15.20
2015,07,26,03,31,15.20
2015,07,26,03,32,15.30
2015,07,26,03,33,15.30
2015,07,26,03,34,15.30
2015,07,26,03,35,15.30
2015,07,26,03,36,15.30
2015,07,26,03,37,15.30
2015,07,26,03,38,15.30
2015,07,26,03,39,15.30
2015,07,26,03,40,15.30
2015,07,26,03,41,15.30
2015,07,26,03,42,15.30
2015,07,26,03,43,15.30
2015,07,26,03,44,15.30
2015,07,26,03,45,15.30
2015,07,26,03,46,15.30
2015,07,26,03,47,15.30
2015,07,26,03,48,15.30
2015,07,26,03,49,15.30
2015,07,26,03,50,15.30
2015,07,26,03,51,15.30
2015,07,26,03,52,15.30
2015,07,26,03,53,15.30
2015,07,26,03,54,15.30
2015,07,26,03,55,15.30
2015,07,26,03,56,15.30
2015,07,26,03,57,15.30
2015,07,26,03,58,15.30
2015,07,26,03,59,15.30
2015,07,26,04,00,15.30
2015,07,26,04,01,15.30
2015,07,26,04,02,15.30
2015,07,26,04,03,15.30
2015,07,26,04,04,15.30
2015,07,26,04,05,15.30
2015,07,26,04,06,15.30
2015,07,26,04,07,15.30
2015,07,26,04,08,15.30
2015,07,26,04,09,15.40
2015,07,26,04,10,15.40
2015,07,26,04,11,15.40
2015,07,26,04,12,15.40
2015,07,26,04,13,15.40
2015,07,26,04,14,15.40
2015,07,26,04,15,15.40
2015,07,26,04,16,15.40
2015,07,26,04,17,15.40
2015,07,26,04,18,15.40
2015,07,26,04,19,15.30
2015,07,26,04,20,15.30
2015,07,26,04,21,15.30
2015,07,26,04,22,15.30
2015,07,26,04,23,15.30
2015,07,26,04,24,15.30
2015,07,26,04,25,15.30
2015,07,26,04,26,15.30
2015,07,26,04,27,15.30
2015,07,26,04,28,15.30
2015,07,26,04,29,15.30
2015,07,26,04,30,15.30
2015,07,26,04,31,15.30
2015,07,26,04,32,15.30
2015,07,26,04,33,15.30
2015,07,26,04,34,15.30
2015,07,26,04,35,15.30
2015,07,26,04,36,15.20
2015,07,26,04,37,15.20
2015,07,26,04,38,15.20
2015,07,26,04,39,15.20
2015,07,26,04,40,15.20
2015,07,26,04,41,15.20
2015,07,26,04,42,15.20
2015,07,26,04,43,15.20
2015,07,26,04,44,15.20
2015,07,26,04,45,15.20
2015,07,26,04,46,15.20
2015,07,26,04,47,15.20
2015,07,26,04,48,15.20
2015,07,26,04,49,15.20
2015,07,26,04,50,15.10
2015,07,26,04,51,15.10
2015,07,26,04,52,15.10
2015,07,26,04,53,15.10
2015,07,26,04,54,15.10
2015,07,26,04,55,15.10
2015,07,26,04,56,15.10
2015,07,26,04,57,15.10
2015,07,26,04,58,15.10
2015,07,26,04,59,15.10
2015,07,26,05,00,15.10
2015,07,26,05,01,15.10
2015,07,26,05,02,15.10
2015,07,26,05,03,15.10
2015,07,26,05,04,15.10
2015,07,26,05,05,15.10
2015,07,26,05,06,15.10
2015,07,26,05,07,15.10
2015,07,26,05,08,15.10
2015,07,26,05,09,15.10
2015,07,26,05,10,15.10
2015,07,26,05,11,15.10
2015,07,26,05,12,15.10
2015,07,26,05,13,15.10
2015,07,26,05,14,15.10
2015,07,26,05,15,15.10
2015,07,26,05,16,15.10
2015,07,26,05,17,15.10
2015,07,26,05,18,15.10
2015,07,26,05,19,15.10
2015,07,26,05,20,15.10
2015,07,26,05,21,15.10
2015,07,26,05,22,15.10
2015,07,26,05,23,15.10
2015,07,26,05,24,15.10
2015,07,26,05,25,15.10
2015,07,26,05,26,15.10
2015,07,26,05,27,15.10
2015,07,26,05,28,15.10
2015,07,26,05,29,15.10
2015,07,26,05,30,15.10
2015,07,26,05,31,15.10
2015,07,26,05,32,15.10
2015,07,26,05,33,15.10
2015,07,26,05,34,15.10
2015,07,26,05,35,15.10
2015,07,26,05,36,15.00
2015,07,26,05,37,15.00
2015,07,26,05,38,15.00
2015,07,26,05,39,15.00
2015,07,26,05,40,15.00
2015,07,26,05,41,15.00
2015,07,26,05,42,15.00
2015,07,26,05,43,15.00
2015,07,26,05,44,15.00
2015,07,26,05,45,15.00
2015,07,26,05,46,15.00
2015,07,26,05,47,15.00
2015,07,26,05,48,15.00
2015,07,26,05,49,15.00
2015,07,26,05,50,15.00
2015,07,26,05,51,15.00
2015,07,26,05,52,15.00
2015,07,26,05,53,15.00
2015,07,26,05,54,15.00
2015,07,26,05,55,15.00
2015,07,26,05,56,15.00
2015,07,26,05,57,15.00
2015,07,26,05,58,15.00
2015,07,26,05,59,15.00
2015,07,26,06,00,15.00
2015,07,26,06,01,15.00
2015,07,26,06,02,15.00
2015,07,26,06,03,15.00
2015,07,26,06,04,15.00
2015,07,26,06,05,15.00
2015,07,26,06,06,15.00
2015,07,26,06,07,15.00
2015,07,26,06,08,15.00
2015,07,26,06,09,15.00
2015,07,26,06,10,15.00
2015,07,26,06,11,15.00
2015,07,26,06,12,15.00
2015,07,26,06,13,15.00
2015,07,26,06,14,15.00
2015,07,26,06,15,15.00
2015,07,26,06,16,15.00
2015,07,26,06,17,15.00
2015,07,26,06,18,15.00
2015,07,26,06,19,15.00
2015,07,26,06,20,15.00
2015,07,26,06,21,15.10
2015,07,26,06,22,15.10
2015,07,26,06,23,15.10
2015,07,26,06,24,15.10
2015,07,26,06,25,15.10
2015,07,26,06,26,15.10
2015,07,26,06,27,15.10
2015,07,26,06,28,15.10
2015,07,26,06,29,15.10
2015,07,26,06,30,15.10
2015,07,26,06,31,15.10
2015,07,26,06,32,15.10
2015,07,26,06,33,15.10
2015,07,26,06,34,15.10
2015,07,26,06,35,15.10
2015,07,26,06,36,15.10
2015,07,26,06,37,15.10
2015,07,26,06,38,15.10
2015,07,26,06,39,15.10
2015,07,26,06,40,15.10
2015,07,26,06,41,15.10
2015,07,26,06,42,15.10
2015,07,26,06,43,15.10
2015,07,26,06,44,15.10
2015,07,26,06,45,15.10
2015,07,26,06,46,15.10
2015,07,26,06,47,15.10
2015,07,26,06,48,15.10
2015,07,26,06,49,15.20
2015,07,26,06,50,15.20
2015,07,26,06,51,15.20
2015,07,26,06,52,15.20
2015,07,26,06,53,15.20
2015,07,26,06,54,15.20
2015,07,26,06,55,15.20
2015,07,26,06,56,15.20
2015,07,26,06,57,15.20
2015,07,26,06,58,15.20
2015,07,26,06,59,15.20
2015,07,26,07,00,15.20
2015,07,26,07,01,15.20
2015,07,26,07,02,15.20
2015,07,26,07,03,15.20
2015,07,26,07,04,15.20
2015,07,26,07,05,15.20
2015,07,26,07,06,15.20
2015,07,26,07,07,15.20
2015,07,26,07,08,15.20
2015,07,26,07,09,15.20
2015,07,26,07,10,15.20
2015,07,26,07,11,15.20
2015,07,26,07,12,15.20
2015,07,26,07,13,15.20
2015,07,26,07,14,15.20
2015,07,26,07,15,15.20
2015,07,26,07,16,15.20
2015,07,26,07,17,15.20
2015,07,26,07,18,15.20
2015,07,26,07,19,15.10
2015,07,26,07,20,15.10
2015,07,26,07,21,15.20
2015,07,26,07,22,15.20
2015,07,26,07,23,15.20
2015,07,26,07,24,15.20
2015,07,26,07,25,15.20
2015,07,26,07,26,15.20
2015,07,26,07,27,15.20
2015,07,26,07,28,15.20
2015,07,26,07,29,15.20
2015,07,26,07,30,15.20
2015,07,26,07,31,15.20
2015,07,26,07,32,15.20
2015,07,26,07,33,15.20
2015,07,26,07,34,15.20
2015,07,26,07,35,15.20
2015,07,26,07,36,15.20
2015,07,26,07,37,15.20
2015,07,26,07,38,15.20
2015,07,26,07,39,15.20
2015,07,26,07,40,15.20
2015,07,26,07,41,15.20
2015,07,26,07,42,15.20
2015,07,26,07,43,15.20
2015,07,26,07,44,15.20
2015,07,26,07,45,15.20
2015,07,26,07,46,15.20
2015,07,26,07,47,15.20
2015,07,26,07,48,15.20
2015,07,26,07,49,15.30
2015,07,26,07,50,15.30
2015,07,26,07,51,15.30
2015,07,26,07,52,15.30
2015,07,26,07,53,15.30
2015,07,26,07,54,15.30
2015,07,26,07,55,15.30
2015,07,26,07,56,15.30
2015,07,26,07,57,15.30
2015,07,26,07,58,15.30
2015,07,26,07,59,15.30
2015,07,26,08,00,15.30
2015,07,26,08,01,15.30
2015,07,26,08,02,15.30
2015,07,26,08,03,15.40
2015,07,26,08,04,15.40
2015,07,26,08,05,15.40
2015,07,26,08,06,15.40
2015,07,26,08,07,15.50
2015,07,26,08,08,15.50
2015,07,26,08,09,15.50
2015,07,26,08,10,15.50
2015,07,26,08,11,15.50
2015,07,26,08,12,15.60
2015,07,26,08,13,15.60
2015,07,26,08,14,15.60
2015,07,26,08,15,15.60
2015,07,26,08,16,15.60
2015,07,26,08,17,15.60
2015,07,26,08,18,15.70
2015,07,26,08,19,15.70
2015,07,26,08,20,15.70
2015,07,26,08,21,15.80
2015,07,26,08,22,15.80
2015,07,26,08,23,15.80
2015,07,26,08,24,15.80
2015,07,26,08,25,15.80
2015,07,26,08,26,15.80
2015,07,26,08,27,15.90
2015,07,26,08,28,15.90
2015,07,26,08,29,16.00
2015,07,26,08,30,16.10
2015,07,26,08,31,16.10
2015,07,26,08,32,16.10
2015,07,26,08,33,16.10
2015,07,26,08,34,16.20
2015,07,26,08,35,16.20
2015,07,26,08,36,16.20
2015,07,26,08,37,16.30
2015,07,26,08,38,16.30
2015,07,26,08,39,16.30
2015,07,26,08,40,16.40
2015,07,26,08,41,16.40
2015,07,26,08,42,16.40
2015,07,26,08,43,16.40
2015,07,26,08,44,16.40
2015,07,26,08,45,16.40
2015,07,26,08,46,16.60
2015,07,26,08,47,16.60
2015,07,26,08,48,16.60
2015,07,26,08,49,16.70
2015,07,26,08,50,16.70
2015,07,26,08,51,16.70
2015,07,26,08,52,16.70
2015,07,26,08,53,16.70
2015,07,26,08,54,16.70
2015,07,26,08,55,16.70
2015,07,26,08,56,16.80
2015,07,26,08,57,16.80
2015,07,26,08,58,16.80
2015,07,26,08,59,16.80
2015,07,26,09,00,16.90
2015,07,26,09,01,16.90
2015,07,26,09,02,16.90
2015,07,26,09,03,17.00
2015,07,26,09,04,17.00
2015,07,26,09,05,17.00
2015,07,26,09,06,17.00
2015,07,26,09,07,17.00
2015,07,26,09,08,17.10
2015,07,26,09,09,17.10
2015,07,26,09,10,17.10
2015,07,26,09,11,17.10
2015,07,26,09,12,17.20
2015,07,26,09,13,17.20
2015,07,26,09,14,17.20
2015,07,26,09,15,17.20
2015,07,26,09,16,17.30
2015,07,26,09,17,17.30
2015,07,26,09,18,17.30
2015,07,26,09,19,17.30
2015,07,26,09,20,17.30
2015,07,26,09,21,17.30
2015,07,26,09,22,17.30
2015,07,26,09,23,17.20
2015,07,26,09,24,17.20
2015,07,26,09,25,17.20
2015,07,26,09,26,17.20
2015,07,26,09,27,17.20
2015,07,26,09,28,17.20
2015,07,26,09,29,17.20
2015,07,26,09,30,17.20
2015,07,26,09,31,17.20
2015,07,26,09,32,17.20
2015,07,26,09,33,17.20
2015,07,26,09,34,17.20
2015,07,26,09,35,17.20
2015,07,26,09,36,17.20
2015,07,26,09,37,17.20
2015,07,26,09,38,17.20
2015,07,26,09,39,17.30
2015,07,26,09,40,17.30
2015,07,26,09,41,17.30
2015,07,26,09,42,17.30
2015,07,26,09,43,17.30
2015,07,26,09,44,17.30
2015,07,26,09,45,17.30
2015,07,26,09,46,17.30
2015,07,26,09,47,17.30
2015,07,26,09,48,17.30
2015,07,26,09,49,17.40
2015,07,26,09,50,17.40
2015,07,26,09,51,17.40
2015,07,26,09,52,17.40
2015,07,26,09,53,17.50
2015,07,26,09,54,17.50
2015,07,26,09,55,17.50
2015,07,26,09,56,17.60
2015,07,26,09,57,17.60
2015,07,26,09,58,17.60
2015,07,26,09,59,17.60
2015,07,26,10,00,17.60
2015,07,26,10,01,17.60
2015,07,26,10,02,17.60
2015,07,26,10,03,17.60
2015,07,26,10,04,17.60
2015,07,26,10,05,17.60
2015,07,26,10,06,17.60
2015,07,26,10,07,17.70
2015,07,26,10,08,17.70
2015,07,26,10,09,17.70
2015,07,26,10,10,17.70
2015,07,26,10,11,17.70
2015,07,26,10,12,17.70
2015,07,26,10,13,17.70
2015,07,26,10,14,17.70
2015,07,26,10,15,17.80
2015,07,26,10,16,17.80
2015,07,26,10,17,17.80
2015,07,26,10,18,17.80
2015,07,26,10,19,17.90
2015,07,26,10,20,17.90
2015,07,26,10,21,17.90
2015,07,26,10,22,17.90
2015,07,26,10,23,18.00
2015,07,26,10,24,18.10
2015,07,26,10,25,18.20
2015,07,26,10,26,18.30
2015,07,26,10,27,18.50
2015,07,26,10,28,18.60
2015,07,26,10,29,18.70
2015,07,26,10,30,18.80
2015,07,26,10,31,18.90
2015,07,26,10,32,18.90
2015,07,26,10,33,19.00
2015,07,26,10,34,19.10
2015,07,26,10,35,19.10
2015,07,26,10,36,19.30
2015,07,26,10,37,19.30
2015,07,26,10,38,19.40
2015,07,26,10,39,19.40
2015,07,26,10,40,19.40
2015,07,26,10,41,19.40
2015,07,26,10,42,19.40
2015,07,26,10,43,19.40
2015,07,26,10,44,19.40
2015,07,26,10,45,19.40
2015,07,26,10,46,19.40
2015,07,26,10,47,19.40
2015,07,26,10,48,19.50
2015,07,26,10,49,19.50
2015,07,26,10,50,19.40
2015,07,26,10,51,19.40
2015,07,26,10,52,19.40
2015,07,26,10,53,19.40
2015,07,26,10,54,19.50
2015,07,26,10,55,19.50
2015,07,26,10,56,19.50
2015,07,26,10,57,19.50
2015,07,26,10,58,19.60
2015,07,26,10,59,19.60
2015,07,26,11,00,19.60
2015,07,26,11,01,19.60
2015,07,26,11,02,19.70
2015,07,26,11,03,19.70
2015,07,26,11,04,19.70
2015,07,26,11,05,19.70
2015,07,26,11,06,19.80
2015,07,26,11,07,19.80
2015,07,26,11,08,19.80
2015,07,26,11,09,19.80
2015,07,26,11,10,19.80
2015,07,26,11,11,19.70
2015,07,26,11,12,19.60
2015,07,26,11,13,19.40
2015,07,26,11,14,19.30
2015,07,26,11,15,19.20
2015,07,26,11,16,19.10
2015,07,26,11,17,19.10
2015,07,26,11,18,19.10
2015,07,26,11,19,19.10
2015,07,26,11,20,19.10
2015,07,26,11,21,19.10
2015,07,26,11,22,19.00
2015,07,26,11,23,18.90
2015,07,26,11,24,18.80
2015,07,26,11,25,18.80
2015,07,26,11,26,18.80
2015,07,26,11,27,18.80
2015,07,26,11,28,18.90
2015,07,26,11,29,18.90
2015,07,26,11,30,18.90
2015,07,26,11,31,18.90
2015,07,26,11,32,18.80
2015,07,26,11,33,18.80
2015,07,26,11,34,18.80
2015,07,26,11,35,18.80
2015,07,26,11,36,18.80
2015,07,26,11,37,18.70
2015,07,26,11,38,18.70
2015,07,26,11,39,18.70
2015,07,26,11,40,18.60
2015,07,26,11,41,18.50
2015,07,26,11,42,18.40
2015,07,26,11,43,18.40
2015,07,26,11,44,18.30
2015,07,26,11,45,18.20
2015,07,26,11,46,18.10
2015,07,26,11,47,17.90
2015,07,26,11,48,17.80
2015,07,26,11,49,17.80
2015,07,26,11,50,17.70
2015,07,26,11,51,17.70
2015,07,26,11,52,17.70
2015,07,26,11,53,17.60
2015,07,26,11,54,17.50
2015,07,26,11,55,17.50
2015,07,26,11,56,17.40
2015,07,26,11,57,17.40
2015,07,26,11,58,17.30
2015,07,26,11,59,17.30
2015,07,26,12,00,17.30
2015,07,26,12,01,17.30
2015,07,26,12,02,17.30
2015,07,26,12,03,17.30
2015,07,26,12,04,17.30
2015,07,26,12,05,17.30
2015,07,26,12,06,17.40
2015,07,26,12,07,17.50
2015,07,26,12,08,17.60
2015,07,26,12,09,17.70
2015,07,26,12,10,17.80
2015,07,26,12,11,17.90
2015,07,26,12,12,17.90
2015,07,26,12,13,18.10
2015,07,26,12,14,18.10
2015,07,26,12,15,18.10
2015,07,26,12,16,18.20
2015,07,26,12,17,18.20
2015,07,26,12,18,18.30
2015,07,26,12,19,18.40
2015,07,26,12,20,18.50
2015,07,26,12,21,18.50
2015,07,26,12,22,18.50
2015,07,26,12,23,18.50
2015,07,26,12,24,18.50
2015,07,26,12,25,18.40
2015,07,26,12,26,18.40
2015,07,26,12,27,18.40
2015,07,26,12,28,18.40
2015,07,26,12,29,18.40
2015,07,26,12,30,18.40
2015,07,26,12,31,18.50
2015,07,26,12,32,18.50
2015,07,26,12,33,18.50
2015,07,26,12,34,18.50
2015,07,26,12,35,18.50
2015,07,26,12,36,18.50
2015,07,26,12,37,18.60
2015,07,26,12,38,18.70
2015,07,26,12,39,18.80
2015,07,26,12,40,18.90
2015,07,26,12,41,18.90
2015,07,26,12,42,18.90
2015,07,26,12,43,18.90
2015,07,26,12,44,18.90
2015,07,26,12,45,18.90
2015,07,26,12,46,18.90
2015,07,26,12,47,18.80
2015,07,26,12,48,18.80
2015,07,26,12,49,18.70
2015,07,26,12,50,18.60
2015,07,26,12,51,18.60
2015,07,26,12,52,18.50
2015,07,26,12,53,18.30
2015,07,26,12,54,18.20
2015,07,26,12,55,18.10
2015,07,26,12,56,18.00
2015,07,26,12,57,17.90
2015,07,26,12,58,17.90
2015,07,26,12,59,17.90
2015,07,26,13,00,17.80
2015,07,26,13,01,17.70
2015,07,26,13,02,17.50
2015,07,26,13,03,17.30
2015,07,26,13,04,17.00
2015,07,26,13,05,16.70
2015,07,26,13,06,16.30
2015,07,26,13,07,16.10
2015,07,26,13,08,15.90
2015,07,26,13,09,15.80
2015,07,26,13,10,15.60
2015,07,26,13,11,15.60
2015,07,26,13,12,15.50
2015,07,26,13,13,15.30
2015,07,26,13,14,15.30
2015,07,26,13,15,15.30
2015,07,26,13,16,15.30
2015,07,26,13,17,15.30
2015,07,26,13,18,15.30
2015,07,26,13,19,15.30
2015,07,26,13,20,15.30
2015,07,26,13,21,15.30
2015,07,26,13,22,15.30
2015,07,26,13,23,15.30
2015,07,26,13,24,15.40
2015,07,26,13,25,15.40
2015,07,26,13,26,15.40
2015,07,26,13,27,15.40
2015,07,26,13,28,15.40
2015,07,26,13,29,15.40
2015,07,26,13,30,15.40
2015,07,26,13,31,15.40
2015,07,26,13,32,15.40
2015,07,26,13,33,15.30
2015,07,26,13,34,15.30
2015,07,26,13,35,15.30
2015,07,26,13,36,15.30
2015,07,26,13,37,15.30
2015,07,26,13,38,15.30
2015,07,26,13,39,15.30
2015,07,26,13,40,15.30
2015,07,26,13,41,15.30
2015,07,26,13,42,15.30
2015,07,26,13,43,15.30
2015,07,26,13,44,15.30
2015,07,26,13,45,15.30
2015,07,26,13,46,15.30
2015,07,26,13,47,15.20
2015,07,26,13,48,15.20
2015,07,26,13,49,15.20
2015,07,26,13,50,15.20
2015,07,26,13,51,15.20
2015,07,26,13,52,15.30
2015,07,26,13,53,15.30
2015,07,26,13,54,15.30
2015,07,26,13,55,15.30
2015,07,26,13,56,15.30
2015,07,26,13,57,15.30
2015,07,26,13,58,15.30
2015,07,26,13,59,15.30
2015,07,26,14,00,15.30
2015,07,26,14,01,15.30
2015,07,26,14,02,15.30
2015,07,26,14,03,15.30
2015,07,26,14,04,15.30
2015,07,26,14,05,15.30
2015,07,26,14,06,15.40
2015,07,26,14,07,15.30
2015,07,26,14,08,15.30
2015,07,26,14,09,15.30
2015,07,26,14,10,15.30
2015,07,26,14,11,15.30
2015,07,26,14,12,15.30
2015,07,26,14,13,15.30
2015,07,26,14,14,15.30
2015,07,26,14,15,15.30
2015,07,26,14,16,15.30
2015,07,26,14,17,15.30
2015,07,26,14,18,15.30
2015,07,26,14,19,15.30
2015,07,26,14,20,15.20
2015,07,26,14,21,15.20
2015,07,26,14,22,15.10
2015,07,26,14,23,15.10
2015,07,26,14,24,15.00
2015,07,26,14,25,15.00
2015,07,26,14,26,15.00
2015,07,26,14,27,14.90
2015,07,26,14,28,14.90
2015,07,26,14,29,14.80
2015,07,26,14,30,14.80
2015,07,26,14,31,14.80
2015,07,26,14,32,14.90
2015,07,26,14,33,14.90
2015,07,26,14,34,14.90
2015,07,26,14,35,14.90
2015,07,26,14,36,14.90
2015,07,26,14,37,14.90
2015,07,26,14,38,14.80
2015,07,26,14,39,14.80
2015,07,26,14,40,14.80
2015,07,26,14,41,14.80
2015,07,26,14,42,14.80
2015,07,26,14,43,14.80
2015,07,26,14,44,14.80
2015,07,26,14,45,14.80
2015,07,26,14,46,14.80
2015,07,26,14,47,14.80
2015,07,26,14,48,14.80
2015,07,26,14,49,14.70
2015,07,26,14,50,14.70
2015,07,26,14,51,14.70
2015,07,26,14,52,14.70
2015,07,26,14,53,14.70
2015,07,26,14,54,14.70
2015,07,26,14,55,14.70
2015,07,26,14,56,14.70
2015,07,26,14,57,14.70
2015,07,26,14,58,14.70
2015,07,26,14,59,14.70
2015,07,26,15,00,14.70
2015,07,26,15,01,14.70
2015,07,26,15,02,14.70
2015,07,26,15,03,14.70
2015,07,26,15,04,14.70
2015,07,26,15,05,14.60
2015,07,26,15,06,14.60
2015,07,26,15,07,14.60
2015,07,26,15,08,14.60
2015,07,26,15,09,14.60
2015,07,26,15,10,14.60
2015,07,26,15,11,14.60
2015,07,26,15,12,14.60
2015,07,26,15,13,14.60
2015,07,26,15,14,14.60
2015,07,26,15,15,14.60
2015,07,26,15,16,14.60
2015,07,26,15,17,14.60
2015,07,26,15,18,14.50
2015,07,26,15,19,14.50
2015,07,26,15,20,14.50
2015,07,26,15,21,14.40
2015,07,26,15,22,14.40
2015,07,26,15,23,14.40
2015,07,26,15,24,14.30
2015,07,26,15,25,14.30
2015,07,26,15,26,14.30
2015,07,26,15,27,14.30
2015,07,26,15,28,14.30
2015,07,26,15,29,14.30
2015,07,26,15,30,14.30
2015,07,26,15,31,14.20
2015,07,26,15,32,14.20
2015,07,26,15,33,14.20
2015,07,26,15,34,14.20
2015,07,26,15,35,14.20
2015,07,26,15,36,14.20
2015,07,26,15,37,14.20
2015,07,26,15,38,14.10
2015,07,26,15,39,14.10
2015,07,26,15,40,14.10
2015,07,26,15,41,14.10
2015,07,26,15,42,14.10
2015,07,26,15,43,14.10
2015,07,26,15,44,14.10
2015,07,26,15,45,14.10
2015,07,26,15,46,14.10
2015,07,26,15,47,14.00
2015,07,26,15,48,14.00
2015,07,26,15,49,14.00
2015,07,26,15,50,14.00
2015,07,26,15,51,14.00
2015,07,26,15,52,14.00
2015,07,26,15,53,14.00
2015,07,26,15,54,13.90
2015,07,26,15,55,13.90
2015,07,26,15,56,13.90
2015,07,26,15,57,13.90
2015,07,26,15,58,14.00
2015,07,26,15,59,14.00
2015,07,26,16,00,14.10
2015,07,26,16,01,14.20
2015,07,26,16,02,14.20
2015,07,26,16,03,14.20
2015,07,26,16,04,14.30
2015,07,26,16,05,14.30
2015,07,26,16,06,14.30
2015,07,26,16,07,14.40
2015,07,26,16,08,14.40
2015,07,26,16,09,14.50
2015,07,26,16,10,14.50
2015,07,26,16,11,14.60
2015,07,26,16,12,14.70
2015,07,26,16,13,14.70
2015,07,26,16,14,14.80
2015,07,26,16,15,14.80
2015,07,26,16,16,14.80
2015,07,26,16,17,14.90
2015,07,26,16,18,14.90
2015,07,26,16,19,14.90
2015,07,26,16,20,14.90
2015,07,26,16,21,14.80
2015,07,26,16,22,14.80
2015,07,26,16,23,14.90
2015,07,26,16,24,14.90
2015,07,26,16,25,15.00
2015,07,26,16,26,15.00
2015,07,26,16,27,15.10
2015,07,26,16,28,15.10
2015,07,26,16,29,15.10
2015,07,26,16,30,15.10
2015,07,26,16,31,15.00
2015,07,26,16,32,15.10
2015,07,26,16,33,15.00
2015,07,26,16,34,15.00
2015,07,26,16,35,15.10
2015,07,26,16,36,15.10
2015,07,26,16,37,15.10
2015,07,26,16,38,15.10
2015,07,26,16,39,15.10
2015,07,26,16,40,15.20
2015,07,26,16,41,15.30
2015,07,26,16,42,15.30
2015,07,26,16,43,15.30
2015,07,26,16,44,15.30
2015,07,26,16,45,15.40
2015,07,26,16,46,15.50
2015,07,26,16,47,15.70
2015,07,26,16,48,15.80
2015,07,26,16,49,15.90
2015,07,26,16,50,16.00
2015,07,26,16,51,16.10
2015,07,26,16,52,16.20
2015,07,26,16,53,16.30
2015,07,26,16,54,16.40
2015,07,26,16,55,16.50
2015,07,26,16,56,16.70
2015,07,26,16,57,16.80
2015,07,26,16,58,16.90
2015,07,26,16,59,16.80
2015,07,26,17,00,16.80
2015,07,26,17,01,16.80
2015,07,26,17,02,16.90
2015,07,26,17,03,17.00
2015,07,26,17,04,16.90
2015,07,26,17,05,16.90
2015,07,26,17,06,16.90
2015,07,26,17,07,17.00
2015,07,26,17,08,17.00
2015,07,26,17,09,17.10
2015,07,26,17,10,17.10
2015,07,26,17,11,17.10
2015,07,26,17,12,17.00
2015,07,26,17,13,17.00
2015,07,26,17,14,17.00
2015,07,26,17,15,17.00
2015,07,26,17,16,17.00
2015,07,26,17,17,17.10
2015,07,26,17,18,17.10
2015,07,26,17,19,17.20